When you browse on this site, cookies collect data to enhance your experience and personalize the content and advertising you see.
Visit our Privacy Policy to learn more. By continuing to use the site, you agree to this use of cookies and data.
  • In Lithuania
  • List of Countries
  • For 7 days
  • Water Temperature
  • Satellite Maps
  • Weather Map
  • Weather Widgets
  • user-avatar
    Login

    Hourly Weather Sonka

    Today, 21 May, Tuesday

    Time Temperature Precipitation Wind Pressure Humidity
    00:00 +15°C° 0 mm 2 mps 743 mmHg 81%
    01:00 +15°C° 0 mm 2 mps 743 mmHg 81%
    02:00 +15°C° 0 mm 2 mps 743 mmHg 81%
    03:00 +15°C° 0 mm 2 mps 743 mmHg 81%
    04:00 +15°C° 0 mm 2 mps 743 mmHg 81%
    05:00 +15°C° 0 mm 2 mps 743 mmHg 81%
    06:00 +17°C° 0 mm 2 mps 743 mmHg 73%
    07:00 +19°C° 0 mm 2 mps 743 mmHg 65%
    08:00 +21°C° 0 mm 3 mps 743 mmHg 57%
    09:00 +22°C° 0 mm 3 mps 743 mmHg 51%
    10:00 +23°C° 0 mm 4 mps 742 mmHg 45%
    11:00 +26°C° 0 mm 4 mps 742 mmHg 39%
    12:00 +26°C° 0 mm 4 mps 742 mmHg 38%
    13:00 +26°C° 0 mm 4 mps 741 mmHg 37%
    14:00 +26°C° 0 mm 4 mps 741 mmHg 36%
    15:00 +26°C° 0 mm 3 mps 741 mmHg 38%
    16:00 +26°C° 0 mm 3 mps 740 mmHg 41%
    17:00 +25°C° 0 mm 2 mps 740 mmHg 43%
    18:00 +23°C° 0 mm 2 mps 740 mmHg 51%
    19:00 +20°C° 0 mm 2 mps 739 mmHg 59%
    20:00 +18°C° 0 mm 2 mps 739 mmHg 67%
    21:00 +17°C° 0 mm 2 mps 739 mmHg 70%
    22:00 +16°C° 0 mm 2 mps 739 mmHg 73%
    23:00 +15°C° 0 mm 2 mps 739 mmHg 75%

    Tomorrow, 22 May, Wednesday

    Time Temperature Precipitation Wind Pressure Humidity
    00:00 +15°C° 0 mm 2 mps 739 mmHg 77%
    01:00 +15°C° 0 mm 2 mps 739 mmHg 79%
    02:00 +14°C° 0 mm 2 mps 738 mmHg 81%
    03:00 +15°C° 0 mm 2 mps 738 mmHg 81%
    04:00 +15°C° 0 mm 2 mps 738 mmHg 82%
    05:00 +16°C° 0 mm 3 mps 738 mmHg 82%
    06:00 +17°C° 0 mm 3 mps 738 mmHg 78%
    07:00 +18°C° 0 mm 3 mps 738 mmHg 73%
    08:00 +20°C° 0 mm 3 mps 737 mmHg 69%
    09:00 +21°C° 0.5 mm 3 mps 737 mmHg 66%
    10:00 +22°C° 0.5 mm 3 mps 737 mmHg 63%
    11:00 +24°C° 0.5 mm 3 mps 736 mmHg 60%
    12:00 +22°C° 1.6 mm 3 mps 736 mmHg 66%
    13:00 +21°C° 1.6 mm 2 mps 736 mmHg 72%
    14:00 +20°C° 1.6 mm 2 mps 735 mmHg 78%
    15:00 +21°C° 0.1 mm 2 mps 735 mmHg 77%
    16:00 +22°C° 0.1 mm 1 mps 735 mmHg 75%
    17:00 +22°C° 0.1 mm 1 mps 735 mmHg 73%
    18:00 +20°C° 0.6 mm 1 mps 734 mmHg 79%
    19:00 +19°C° 0.6 mm 1 mps 734 mmHg 84%
    20:00 +18°C° 0.6 mm 1 mps 734 mmHg 90%
    21:00 +16°C° 0.3 mm 1 mps 734 mmHg 91%
    22:00 +15°C° 0.3 mm 1 mps 734 mmHg 93%
    23:00 +15°C° 0.3 mm 1 mps 734 mmHg 95%

    Day after tomorrow, 23 May, Thursday

    Time Temperature Precipitation Wind Pressure Humidity
    00:00 +14°C° 0 mm 1 mps 734 mmHg 95%
    01:00 +14°C° 0 mm 1 mps 734 mmHg 96%
    02:00 +14°C° 0 mm 1 mps 734 mmHg 97%
    03:00 +14°C° 0 mm 2 mps 734 mmHg 97%
    04:00 +13°C° 0 mm 2 mps 735 mmHg 97%
    05:00 +12°C° 0 mm 3 mps 735 mmHg 97%
    06:00 +12°C° 0 mm 3 mps 735 mmHg 96%
    07:00 +12°C° 0 mm 3 mps 735 mmHg 95%
    08:00 +12°C° 0 mm 3 mps 736 mmHg 93%
    09:00 +12°C° 0 mm 3 mps 736 mmHg 92%
    10:00 +12°C° 0 mm 3 mps 736 mmHg 90%
    11:00 +12°C° 0 mm 3 mps 736 mmHg 88%
    12:00 +14°C° 0 mm 3 mps 736 mmHg 78%
    13:00 +17°C° 0 mm 2 mps 737 mmHg 68%
    14:00 +19°C° 0 mm 2 mps 737 mmHg 58%
    15:00 +19°C° 0 mm 2 mps 737 mmHg 56%
    16:00 +19°C° 0 mm 3 mps 737 mmHg 55%
    17:00 +19°C° 0 mm 3 mps 737 mmHg 53%
    18:00 +17°C° 0 mm 3 mps 737 mmHg 60%
    19:00 +15°C° 0 mm 2 mps 737 mmHg 67%
    20:00 +13°C° 0 mm 2 mps 738 mmHg 73%
    21:00 +12°C° 0 mm 2 mps 738 mmHg 76%
    22:00 +10°C° 0 mm 2 mps 738 mmHg 79%
    23:00 +9°C° 0 mm 3 mps 738 mmHg 82%

    24 May, Friday

    Time Temperature Precipitation Wind Pressure Humidity
    00:00 +8°C° 0 mm 3 mps 738 mmHg 79%
    01:00 +7°C° 0 mm 2 mps 738 mmHg 75%
    02:00 +7°C° 0 mm 2 mps 738 mmHg 72%
    03:00 +7°C° 0 mm 3 mps 738 mmHg 69%
    04:00 +7°C° 0 mm 3 mps 738 mmHg 66%
    05:00 +7°C° 0 mm 3 mps 738 mmHg 62%
    06:00 +9°C° 0 mm 3 mps 738 mmHg 61%
    07:00 +11°C° 0 mm 3 mps 738 mmHg 59%
    08:00 +13°C° 0 mm 3 mps 738 mmHg 57%
    09:00 +16°C° 0 mm 3 mps 738 mmHg 56%
    10:00 +17°C° 0 mm 3 mps 738 mmHg 54%
    11:00 +19°C° 0 mm 3 mps 737 mmHg 53%
    12:00 +20°C° 0 mm 3 mps 737 mmHg 54%
    13:00 +20°C° 0 mm 3 mps 737 mmHg 55%
    14:00 +20°C° 0 mm 3 mps 736 mmHg 56%
    15:00 +20°C° 0 mm 3 mps 736 mmHg 59%
    16:00 +20°C° 0 mm 3 mps 735 mmHg 63%
    17:00 +19°C° 0 mm 3 mps 735 mmHg 67%
    18:00 +18°C° 0 mm 3 mps 735 mmHg 70%
    19:00 +18°C° 0 mm 3 mps 735 mmHg 74%
    20:00 +17°C° 0 mm 3 mps 734 mmHg 77%
    21:00 +16°C° 0.7 mm 3 mps 734 mmHg 82%
    22:00 +14°C° 0.7 mm 3 mps 734 mmHg 87%
    23:00 +14°C° 0.7 mm 3 mps 734 mmHg 92%

    25 May, Saturday

    Time Temperature Precipitation Wind Pressure Humidity
    00:00 +13°C° 0.7 mm 3 mps 733 mmHg 94%
    01:00 +13°C° 0.7 mm 3 mps 733 mmHg 96%
    02:00 +13°C° 0.7 mm 3 mps 733 mmHg 98%
    03:00 +14°C° 0 mm 3 mps 733 mmHg 98%
    04:00 +14°C° 0 mm 3 mps 732 mmHg 97%
    05:00 +14°C° 0 mm 3 mps 732 mmHg 97%
    06:00 +16°C° 0.3 mm 2 mps 732 mmHg 95%
    07:00 +17°C° 0.3 mm 2 mps 732 mmHg 93%
    08:00 +17°C° 0.3 mm 2 mps 732 mmHg 91%
    09:00 +18°C° 1.7 mm 2 mps 732 mmHg 88%
    10:00 +19°C° 1.7 mm 2 mps 732 mmHg 85%
    11:00 +19°C° 1.7 mm 2 mps 732 mmHg 81%
    12:00 +21°C° 0.9 mm 1 mps 731 mmHg 80%
    13:00 +21°C° 0.9 mm 1 mps 731 mmHg 80%
    14:00 +21°C° 0.9 mm 1 mps 731 mmHg 79%
    15:00 +20°C° 0.9 mm 1 mps 730 mmHg 82%
    16:00 +20°C° 0.9 mm 1 mps 730 mmHg 85%
    17:00 +18°C° 0.9 mm 2 mps 730 mmHg 88%
    18:00 +17°C° 0.7 mm 2 mps 730 mmHg 90%
    19:00 +16°C° 0.7 mm 2 mps 730 mmHg 92%
    20:00 +15°C° 0.7 mm 2 mps 730 mmHg 94%
    21:00 +14°C° 0.2 mm 2 mps 730 mmHg 95%
    22:00 +14°C° 0.2 mm 2 mps 730 mmHg 95%
    23:00 +13°C° 0.2 mm 2 mps 730 mmHg 96%

    26 May, Sunday

    Time Temperature Precipitation Wind Pressure Humidity
    00:00 +12°C° 0 mm 2 mps 730 mmHg 96%
    01:00 +10°C° 0 mm 2 mps 730 mmHg 96%
    02:00 +10°C° 0 mm 2 mps 730 mmHg 96%
    03:00 +10°C° 0 mm 2 mps 730 mmHg 94%
    04:00 +10°C° 0 mm 2 mps 730 mmHg 92%
    05:00 +10°C° 0 mm 2 mps 730 mmHg 90%
    06:00 +13°C° 0 mm 2 mps 730 mmHg 85%
    07:00 +13°C° 0 mm 3 mps 730 mmHg 79%
    08:00 +16°C° 0 mm 3 mps 731 mmHg 74%
    09:00 +17°C° 0 mm 4 mps 731 mmHg 67%
    10:00 +18°C° 0 mm 4 mps 731 mmHg 61%
    11:00 +19°C° 0 mm 5 mps 731 mmHg 54%
    12:00 +17°C° 0 mm 5 mps 731 mmHg 55%
    13:00 +17°C° 0 mm 5 mps 731 mmHg 56%
    14:00 +17°C° 0 mm 5 mps 731 mmHg 56%
    15:00 +17°C° 0 mm 4 mps 731 mmHg 59%
    16:00 +15°C° 0 mm 4 mps 732 mmHg 61%
    17:00 +14°C° 0 mm 4 mps 732 mmHg 63%
    18:00 +13°C° 0 mm 3 mps 732 mmHg 69%
    19:00 +12°C° 0 mm 3 mps 732 mmHg 75%
    20:00 +10°C° 0 mm 2 mps 732 mmHg 80%
    21:00 +10°C° 0 mm 2 mps 732 mmHg 84%
    22:00 +9°C° 0 mm 2 mps 732 mmHg 87%
    23:00 +8°C° 0 mm 3 mps 733 mmHg 90%
    Show more